STARLINK-30239, 57291

Orbit data source: Space-Track

STARLINK-30239, 57291 is a payload satellite owned by SpaceX/Seattle (US) in LEO that was launched on Mon, 10 Jul 2023 UTC via an FALCON 9 launch vehicle from the Air Force Eastern Test Range (AFETR). Payload-class satellites include a variety of spacecraft equipped with specific instruments for various scientific and technological missions. These include communications satellites like Starlink; space stations such as the ISS; scientific satellites like the Hubble; Earth observation satellites from companies like Planet Labs, Umbra, and HawkEye 360; GPS; miniature CubeSats for education and research; and military/defense satellites.

Loading next visibility...
Identifier
57291, 2023-096B
Orbit
LEO
Country
Flag of USUS
Related business
Manufacturer
SpaceX/Seattle
Mission
Operational Commercial Communications
Bus & Motor
STARLINK V2M, Unknown motor
Mass
730 kg wet, ~700 kg dry
Launch date (UTC)
2023-07-10 (3 years ago)
Launch vehicle
FALCON 9
Launch site
Air Force Eastern Test Range (AFETR)
Object type
Payload
Rocket body
Debris
Shape & HBR
Box + 2 Pan, 17.7 m
Radar Cross Section
33.884 m², Large (>1 m²)

Expand to show TLE details & history
Last TLE update: 3 days ago

TLE from 3 days ago
0 STARLINK-30239
1 57291U 23096B   26170.59606439  .00005909  00000-0  22433-3 0  9992
2 57291  43.0067   7.5840 0001624 254.4895 105.5777 15.27542878163203
Epoch: 2026-06-19T14:18Z
TLE epoch observation values (Epoch: 2026-06-19T14:18:19.963Z)
Latitude
-0.00004°
Longitude
-114.822°
Altitude
483.236 km
Speed
7.625 km/s
True Right ascension
00h 30m 20s
True Declination
0° 00' 00"
Sunlit
Object was in daylight at epoch
Visualization orbit readout
Latitude
Unknown
Longitude
Unknown
Altitude
Unknown
Speed
Unknown
Apparent Right ascension
Unknown
Apparent Declination
Unknown
Sunlit
N/A
Visualization observer readout
Local Sidereal Time
21:42:06
Azimuth
Unknown
Elevation
Unknown
Doppler factor
Unknown
Orbital elements
Apogee altitude
486.219 km
Perigee altitude
483.99 km
Semi-major axis
6,863.241 km
Eccentricity
0.00016
Inclination
43.0067°
RAAN
7.584°
Arg. of periapsis
254.4895°
True anomaly
105.59563°
Mean anomaly
105.5777°
Eccentric anomaly
105.58666°
Mean motion
3.81724 °/min
Orbital period
94.31 mins
BSTAR
0.00022433
Loading maneuver chart data...
Computing Atmospheric mass density...

Documentation

Showing up to 5 results
|